Wind_Speed
14 13 13 13 14 15 14 15 16 16 17 17 18 18 18 21 21 19 23 22 25 29 31 32 35 37 36 33 33 35 35 33 18 36 38 36 35 43 41 41 44 50 49
14 14 14 15 16 16 16 17 17 18 17 17 18 17 19 19 21 21 23 27 19 23 29 29 33 34 35 37 36 36 35 36 34 23 37 36 37 40 42 39 41 51 51
13 13 13 15 16 17 17 18 18 18 18 18 18 21 20 20 20 22 20 28 30 27 27 30 37 35 33 35 34 34 36 37 35 35 36 40 38 37 35 40 41 38 47
11 12 13 15 17 17 18 19 20 21 21 22 21 19 20 21 21 20 25 27 29 31 30 29 32 32 35 36 35 37 37 34 37 35 33 34 36 35 34 33 28 40 38
10 12 14 16 16 17 19 20 21 21 20 21 21 20 20 20 17 25 27 29 31 34 33 31 31 33 37 36 37 39 39 33 30 32 29 31 29 25 21 36 32 32 35
10 12 14 15 16 18 19 20 20 20 20 20 20 20 21 20 22 26 28 30 30 30 31 34 34 34 31 36 36 38 42 39 40 34 31 19 35 32 32 34 31 22 10
10 12 14 15 16 16 17 18 19 19 19 19 18 20 20 21 24 28 30 31 30 31 33 34 36 32 35 34 37 40 43 44 41 42 39 41 36 40 36 29 35 32 31
9 11 13 14 15 16 17 17 18 18 19 20 20 21 21 21 24 28 32 28 29 31 32 34 36 38 36 39 41 42 40 40 37 37 41 46 45 47 45 36 34 40 42
9 10 11 12 13 14 16 18 18 18 18 19 19 20 21 22 25 29 32 31 31 34 34 34 35 38 38 38 39 41 43 46 40 39 43 48 52 58 54 47 30 16 9
7 8 9 10 12 13 15 16 16 16 16 18 19 19 20 22 25 28 29 31 34 36 35 34 33 35 40 42 41 41 42 46 43 46 50 51 48 51 50 51 43 18 10
8 9 10 11 12 12 14 14 16 16 17 17 18 19 18 21 22 25 28 31 31 35 35 37 36 39 45 50 50 47 47 52 50 47 45 46 44 42 42 39 42 39 23
9 10 11 11 11 13 14 15 16 17 17 18 20 20 19 22 21 24 29 30 33 32 35 37 40 49 47 47 48 48 51 52 48 41 39 40 38 39 37 36 40 46 43
9 11 11 12 12 12 14 15 16 16 17 19 21 21 23 24 23 25 31 32 32 34 32 38 41 38 38 36 39 41 40 39 39 35 32 35 38 39 39 38 40 41 45
11 10 10 11 13 12 12 12 14 15 16 20 21 22 24 24 25 29 34 33 33 34 35 37 33 31 30 33 36 37 37 37 37 36 33 35 37 35 33 32 29 28 28
10 9 10 10 11 13 12 12 14 13 15 20 19 22 24 24 28 33 35 34 35 33 36 28 29 31 32 33 36 36 37 37 36 37 37 37 29 29 29 28 29 22 18
9 9 10 12 12 12 13 15 11 12 15 15 17 19 23 22 29 31 31 32 31 30 27 25 25 27 28 31 32 35 35 36 37 37 36 36 36 25 25 21 23 18 11
10 9 10 10 11 12 13 15 18 17 14 14 16 19 19 25 26 30 31 31 25 26 21 23 24 26 28 29 31 32 35 36 39 35 34 34 36 38 24 20 17 18 12
9 8 7 9 11 12 13 14 15 16 18 18 16 18 19 24 24 28 28 26 24 23 22 23 25 27 28 30 31 33 35 37 36 36 35 34 35 33 32 20 15 12 10
9 7 10 9 9 12 12 13 14 15 16 18 18 17 19 21 22 23 23 19 21 22 23 23 25 26 28 30 30 32 34 33 36 36 34 35 34 34 32 31 25 18 18
9 10 11 10 11 12 12 13 15 15 17 17 18 19 22 25 22 21 20 20 21 22 23 24 26 27 28 30 31 33 33 34 34 34 35 35 35 35 32 32 31 21 15
10 10 11 11 11 11 12 13 14 15 17 18 19 19 22 23 20 20 20 21 22 23 24 26 27 28 28 29 30 32 32 33 33 35 35 36 36 36 37 34 32 34 21
10 12 13 13 13 13 13 14 14 15 17 18 20 21 22 18 18 20 20 20 23 24 24 25 28 28 28 29 30 32 32 33 33 35 36 37 36 37 35 35 34 30 30
11 12 13 13 12 14 14 14 15 16 17 19 20 20 19 19 20 20 22 24 23 27 28 27 28 33 31 30 32 30 31 32 34 37 38 38 36 36 35 33 32 31 26
14 13 14 15 15 17 15 16 17 19 20 19 20 20 20 20 22 24 25 25 26 27 28 29 31 33 34 35 36 37 37 38 37 39 38 36 34 35 34 32 32 33 31
14 15 16 17 18 18 19 18 18 19 19 19 21 21 22 22 23 24 25 28 29 29 30 32 34 33 34 35 37 37 39 39 38 39 35 36 31 34 32 31 32 33 31
16 17 18 19 20 19 19 19 19 19 20 20 21 22 23 25 26 27 29 30 30 31 34 34 35 33 33 35 36 38 38 39 36 38 38 32 32 31 31 31 32 30 29
Wind_Direction
10 7 5 4 1 357 356 355 349 345 348 350 349 344 345 339 334 334 323 304 317 294 269 266 265 268 263 258 253 249 248 246 250 262 261 263 260 259 258 252 253 249 252
3 2 2 360 358 358 356 352 348 348 347 345 348 346 342 341 335 336 333 326 324 319 316 305 272 265 261 259 256 257 252 247 249 261 261 259 250 250 252 246 245 246 249
2 360 1 359 358 356 353 350 350 349 349 349 351 351 346 340 334 343 334 330 326 318 315 313 306 310 285 265 261 260 261 258 257 256 260 262 256 247 245 247 244 243 246
1 2 1 359 356 353 350 351 353 354 355 353 352 347 343 341 346 337 336 327 322 317 315 312 307 303 301 308 297 277 259 264 261 259 261 261 257 253 239 240 241 240 237
6 6 2 357 355 354 354 353 352 352 351 349 349 349 348 345 344 338 335 327 320 319 317 312 308 307 309 308 305 297 301 274 272 264 264 264 259 250 227 237 235 241 244
8 6 360 358 356 356 352 350 348 347 347 346 347 345 343 343 340 337 331 326 322 318 317 317 315 314 315 313 310 305 301 295 289 280 280 270 264 252 246 240 237 234 242
9 4 1 357 354 353 350 349 347 344 343 342 342 342 343 343 342 339 337 329 324 320 317 316 315 315 317 316 314 308 301 296 296 289 284 273 277 274 254 247 239 238 240
11 4 358 354 349 349 350 349 347 344 343 342 343 346 345 344 345 341 339 333 328 325 321 317 314 313 315 314 311 307 302 300 297 289 284 283 272 272 275 264 243 246 248
10 2 354 348 343 346 347 344 345 343 343 343 345 345 346 345 346 344 343 336 331 325 322 316 313 311 308 308 305 303 301 299 300 293 287 287 287 281 271 267 254 230 236
358 347 343 345 339 340 343 340 337 338 337 340 340 343 345 343 345 348 346 338 330 326 320 315 313 310 311 310 305 298 293 293 298 297 292 288 287 283 280 263 258 239 235
344 343 340 343 338 336 336 337 337 338 336 341 341 342 342 343 342 344 344 338 331 326 322 319 317 317 315 309 300 292 285 288 288 287 286 284 281 276 270 261 248 246 237
347 344 348 344 341 338 338 338 338 340 339 339 338 338 338 340 338 339 339 336 334 329 323 318 318 319 318 318 309 293 288 285 280 279 281 279 278 277 273 263 246 249 242
348 352 345 342 343 343 340 338 337 340 338 336 336 335 335 336 333 335 335 334 334 332 324 319 318 322 324 327 325 327 337 295 281 275 273 275 277 278 274 265 252 250 255
350 347 344 341 340 341 341 340 339 338 336 334 334 334 331 331 335 336 336 334 334 332 329 325 325 329 334 334 337 339 332 329 327 297 276 279 282 282 278 260 237 231 235
345 340 340 338 339 339 339 334 334 331 331 328 330 333 332 330 333 332 333 334 334 330 329 331 337 340 340 340 339 337 335 333 331 328 323 311 289 286 278 263 242 232 227
346 343 340 339 336 334 329 325 322 324 327 328 330 332 328 323 328 332 333 334 334 338 340 338 337 339 337 335 335 332 332 332 329 327 327 323 314 291 287 268 241 227 229
344 336 331 333 329 327 330 328 324 326 329 331 332 332 332 328 330 334 336 335 338 345 349 340 334 334 334 329 330 331 327 327 327 326 327 328 324 326 295 280 252 239 237
341 335 327 324 326 325 321 316 317 321 324 326 329 332 330 332 330 335 336 336 343 348 345 336 331 331 330 327 326 327 327 327 330 328 331 331 331 327 330 299 267 248 243
338 333 326 318 317 316 315 315 315 314 317 319 324 328 328 332 326 330 339 344 336 334 333 329 327 327 324 325 323 325 325 323 325 327 329 332 330 332 325 326 306 267 252
325 326 325 318 319 321 316 314 314 317 317 318 320 322 327 330 331 334 335 333 330 325 325 324 323 324 323 324 323 324 324 325 326 326 327 330 328 331 325 321 321 300 272
310 314 319 320 314 310 309 307 308 310 309 311 310 314 325 328 320 322 323 323 322 320 319 319 320 321 321 321 322 322 322 321 322 324 324 325 326 330 327 323 318 320 289
297 308 311 308 307 308 303 304 304 304 304 306 309 312 321 320 314 314 315 316 316 315 314 313 314 316 315 316 317 317 318 319 321 322 320 321 323 329 328 325 324 318 318
281 295 299 297 300 304 307 304 300 302 303 303 305 308 312 310 310 310 310 311 312 314 317 314 313 316 318 318 316 314 311 313 316 316 314 317 321 328 329 326 325 323 320
272 285 295 301 306 307 302 301 302 301 300 299 302 303 304 305 305 305 308 309 310 313 315 318 316 320 324 325 326 325 326 323 319 318 315 315 323 326 328 328 327 326 323
273 282 298 302 300 300 300 299 297 296 296 297 299 301 302 303 303 304 306 311 312 313 315 316 323 324 325 325 326 329 332 332 331 329 319 319 323 327 328 330 331 330 328
279 288 296 298 297 296 294 293 292 293 294 296 297 299 301 301 303 305 307 310 311 312 314 319 322 324 324 325 328 331 332 331 327 323 320 322 325 326 329 330 332 333 331
Height
816 813 811 808 804 802 799 796 794 791 786 782 779 777 775 773 770 764 763 756 754 750 746 743 740 741 735 733 731 729 726 724 716 710 714 712 709 708 702 702 703 705 703
815 813 811 807 803 801 798 795 792 788 784 782 777 775 774 769 769 763 760 760 749 746 745 739 732 731 726 725 722 719 716 714 710 700 700 699 697 694 691 692 689 690 690
816 815 811 808 804 801 797 795 792 788 784 780 776 772 770 768 768 760 758 756 752 744 739 738 732 728 719 714 712 708 708 704 699 693 684 687 683 681 679 680 679 677 675
817 815 812 808 804 801 797 794 790 786 781 777 775 773 771 768 762 764 757 754 749 746 738 732 728 726 723 714 707 700 695 693 689 684 676 674 674 669 669 666 667 665 663
816 814 811 808 805 801 797 792 788 785 782 779 775 773 769 768 764 763 757 752 748 739 734 731 726 722 715 712 709 700 694 682 678 675 667 666 661 662 655 651 649 652 652
816 813 811 808 804 801 798 795 791 787 784 781 777 774 771 768 764 762 759 751 745 739 730 724 720 716 710 705 700 695 691 684 677 668 661 652 649 646 645 644 641 639 638
814 812 809 807 805 802 799 796 792 789 785 781 778 774 769 766 761 758 752 747 740 735 729 721 715 712 708 701 692 686 683 676 672 667 658 647 641 641 638 633 630 627 623
814 812 810 807 806 803 799 796 792 788 785 781 775 771 767 763 760 756 750 744 737 732 726 720 713 706 702 698 690 680 672 665 663 658 653 640 633 629 628 622 615 615 613
814 811 810 808 806 802 798 797 792 787 784 781 775 770 766 761 757 754 747 740 733 727 722 716 711 702 698 696 688 675 663 653 653 647 642 632 625 617 615 615 606 604 601
813 811 809 806 806 802 796 795 792 789 784 779 775 770 764 761 756 751 747 742 732 725 719 712 707 702 693 687 682 671 656 645 643 633 626 618 613 604 600 600 595 594 589
811 809 808 804 802 800 795 792 790 785 782 777 772 768 764 760 755 751 746 742 734 724 715 705 699 694 686 677 672 664 651 642 631 626 614 604 595 590 586 582 579 581 573
808 807 803 802 800 797 793 790 787 783 779 775 770 766 762 758 754 749 745 740 734 725 713 703 694 685 677 667 656 647 639 633 622 610 602 591 584 576 571 567 563 563 561
805 802 801 799 797 794 791 789 786 782 778 774 769 764 759 756 752 747 742 736 730 721 713 703 692 681 672 660 650 639 628 618 610 600 589 580 575 565 560 556 551 549 547
803 801 798 796 794 792 790 788 784 781 778 774 769 764 759 754 749 744 737 730 724 716 708 697 689 678 669 660 646 636 630 622 610 592 577 570 563 555 547 545 540 540 540
800 799 797 795 792 789 788 786 783 781 779 774 770 765 759 752 748 743 737 729 722 715 704 694 684 676 665 657 646 639 629 620 609 599 585 569 555 548 540 537 531 527 524
798 797 795 793 791 788 786 783 781 779 775 772 768 765 759 754 747 741 735 728 721 712 702 695 686 680 671 664 654 642 632 622 613 600 587 575 557 543 534 528 524 520 517
797 797 795 793 791 789 785 781 777 773 771 767 764 761 757 752 745 739 732 724 717 710 704 698 692 682 675 667 659 649 637 625 616 603 591 578 565 547 529 521 518 515 512
795 794 793 791 788 785 783 781 777 772 766 763 760 757 753 749 742 737 730 720 713 708 705 699 692 684 676 669 661 651 638 626 615 604 592 580 568 557 540 520 514 510 507
793 792 791 789 787 784 781 778 774 769 764 760 756 752 749 746 740 735 728 722 716 709 704 699 692 684 676 669 660 651 641 629 619 607 595 584 571 561 545 532 515 507 503
790 790 789 786 783 780 778 775 771 766 760 756 753 749 745 740 734 729 725 720 714 708 703 696 689 681 674 667 658 649 638 628 618 609 598 586 574 563 552 538 524 508 501
789 787 785 783 781 779 775 772 768 763 758 753 749 746 743 737 731 727 723 718 712 706 700 693 685 678 671 664 657 648 639 629 620 611 600 587 575 562 552 540 526 513 498
786 785 782 780 778 774 771 767 764 759 754 749 744 740 736 732 728 723 718 713 708 702 696 690 682 675 669 663 655 648 638 629 619 610 599 588 576 565 554 543 529 515 502
783 780 779 776 772 769 765 762 759 755 750 745 740 735 731 727 722 717 712 707 702 696 691 685 678 670 664 658 652 646 638 628 619 610 599 588 576 566 556 545 534 521 508
779 776 774 770 766 763 760 757 753 749 745 740 735 731 727 722 717 711 706 701 696 691 685 680 673 666 659 652 646 639 632 624 617 607 599 589 578 568 558 548 538 527 514
772 770 767 763 760 758 755 751 748 745 740 736 730 726 721 716 711 705 700 695 689 684 679 674 667 660 654 647 640 633 626 618 611 603 596 588 579 570 560 550 540 529 517
766 763 760 757 754 752 749 746 743 739 734 729 725 720 715 709 704 699 693 688 683 678 672 666 660 654 648 641 634 627 620 613 607 601 593 585 577 569 561 551 542 533 524